QPF
0.00 0.00 0.00 0.00 0.00 0.00 0.01 0.01 0.02 0.02 0.03 0.02 0.01 0.01 0.01 0.01 0.00 0.01 0.01 0.00 0.01 0.00
0.00 0.00 0.00 0.00 0.00 0.00 0.00 0.00 0.00 0.00 0.01 0.01 0.01 0.02 0.02 0.02 0.01 0.01 0.01 0.00 0.00 0.00
0.00 0.00 0.00 0.00 0.00 0.00 0.00 0.00 0.00 0.00 0.00 0.00 0.00 0.01 0.02 0.02 0.01 0.01 0.01 0.01 0.00 0.00
0.00 0.00 0.00 0.00 0.00 0.00 0.00 0.00 0.00 0.00 0.01 0.01 0.00 0.01 0.01 0.01 0.02 0.01 0.01 0.01 0.00 0.00
0.00 0.00 0.00 0.00 0.00 0.00 0.00 0.00 0.00 0.00 0.00 0.01 0.01 0.00 0.01 0.02 0.02 0.01 0.01 0.01 0.00 0.00
0.00 0.00 0.00 0.00 0.00 0.00 0.00 0.01 0.00 0.00 0.01 0.01 0.01 0.01 0.00 0.00 0.01 0.01 0.01 0.00 0.00 0.00
0.00 0.00 0.00 0.00 0.00 0.01 0.01 0.01 0.00 0.00 0.01 0.01 0.01 0.01 0.01 0.01 0.00 0.00 0.00 0.00 0.00 0.00
0.00 0.00 0.00 0.00 0.00 0.00 0.01 0.01 0.00 0.00 0.01 0.01 0.02 0.02 0.01 0.01 0.00 0.00 0.00 0.00 0.00 0.01
0.00 0.00 0.00 0.00 0.00 0.00 0.00 0.00 0.01 0.01 0.01 0.04 0.03 0.02 0.03 0.01 0.00 0.00 0.00 0.00 0.00 0.01
0.00 0.00 0.00 0.00 0.00 0.00 0.00 0.01 0.01 0.02 0.01 0.02 0.04 0.05 0.02 0.00 0.00 0.00 0.00 0.00 0.01 0.01
0.00 0.00 0.00 0.00 0.00 0.01 0.01 0.02 0.02 0.03 0.05 0.03 0.02 0.06 0.03 0.01 0.00 0.00 0.00 0.01 0.01 0.01
0.00 0.00 0.00 0.00 0.01 0.02 0.03 0.02 0.03 0.06 0.08 0.06 0.03 0.03 0.02 0.01 0.00 0.00 0.00 0.01 0.01 0.01
0.00 0.00 0.00 0.01 0.02 0.02 0.05 0.06 0.05 0.12 0.15 0.17 0.08 0.04 0.02 0.01 0.00 0.00 0.00 0.00 0.00 0.01
0.00 0.00 0.00 0.02 0.03 0.04 0.09 0.08 0.09 0.16 0.21 0.18 0.15 0.11 0.04 0.01 0.00 0.00 0.00 0.00 0.00 0.00
MSLP
1008.05 1008.26 1008.16 1007.81 1007.48 1007.38 1007.25 1007.11 1007.07 1007.21 1007.56 1007.85 1008.23 1008.73 1009.31 1009.60 1009.82 1010.32 1011.07 1011.77 1012.25 1012.65
1008.53 1008.54 1008.27 1008.01 1007.78 1007.51 1006.88 1006.50 1006.50 1006.67 1006.94 1006.93 1007.13 1007.89 1008.50 1008.87 1009.16 1009.77 1010.35 1010.93 1011.60 1012.10
1009.42 1008.97 1008.95 1008.33 1007.74 1007.28 1006.83 1006.14 1005.85 1005.78 1006.11 1006.35 1006.50 1007.04 1007.64 1008.02 1008.44 1009.18 1009.78 1010.32 1010.91 1011.61
1009.08 1009.10 1008.65 1007.83 1007.11 1006.63 1006.19 1005.81 1005.11 1004.88 1005.10 1005.45 1005.79 1006.35 1006.69 1007.25 1007.77 1008.34 1009.02 1009.71 1010.31 1010.81
1008.18 1007.88 1007.64 1007.11 1007.04 1006.22 1005.34 1004.71 1004.19 1003.94 1004.20 1004.47 1005.01 1005.45 1005.90 1006.46 1006.92 1007.55 1008.17 1008.88 1009.77 1010.22
1008.43 1008.13 1007.70 1007.06 1006.40 1005.38 1004.64 1003.47 1002.98 1003.02 1003.21 1003.38 1004.10 1004.59 1005.04 1005.51 1006.19 1006.64 1007.28 1008.07 1008.85 1009.36
1008.45 1008.34 1007.36 1006.59 1005.96 1004.74 1003.89 1002.76 1002.15 1002.26 1002.35 1002.50 1003.10 1003.71 1004.20 1004.74 1005.52 1006.08 1006.61 1007.43 1008.15 1008.65
1009.36 1008.39 1007.59 1006.90 1005.57 1004.46 1003.47 1002.17 1001.53 1001.62 1001.67 1001.97 1002.53 1002.97 1003.59 1004.04 1004.83 1005.55 1006.20 1006.86 1007.46 1007.98
1009.94 1008.73 1007.68 1006.40 1005.05 1003.95 1002.92 1001.68 1001.05 1001.01 1001.19 1001.50 1001.90 1002.40 1002.90 1003.41 1004.36 1005.20 1005.64 1006.35 1006.97 1007.51
1009.68 1008.61 1007.35 1006.09 1005.04 1003.68 1002.70 1001.32 1000.63 1000.50 1000.67 1001.00 1001.32 1001.96 1002.64 1003.34 1004.03 1004.61 1005.13 1005.83 1006.50 1007.08
1009.77 1008.58 1007.29 1006.07 1004.90 1003.48 1002.49 1001.24 1000.03 1000.08 1000.30 1000.69 1001.01 1001.64 1002.29 1003.13 1003.69 1004.32 1004.86 1005.44 1005.95 1006.56
1010.02 1008.60 1007.31 1006.12 1004.87 1003.64 1002.13 1001.06 999.56 999.69 1000.08 1000.24 1000.94 1001.37 1002.36 1003.07 1003.67 1004.22 1004.89 1005.55 1005.93 1006.29
1010.45 1009.22 1007.90 1006.36 1004.73 1003.76 1002.31 1000.31 999.52 999.94 999.99 1000.51 1000.86 1001.43 1002.22 1002.69 1003.75 1004.58 1005.54 1006.42 1006.81 1006.69
1010.89 1009.53 1008.13 1006.68 1005.44 1004.25 1002.88 1001.97 1000.95 1000.93 1001.45 1001.38 1001.23 1001.67 1002.37 1002.68 1003.56 1004.41 1005.82 1006.68 1007.50 1007.43
Thickness
5621 5623 5625 5632 5639 5644 5645 5647 5649 5649 5649 5649 5646 5643 5639 5637 5637 5634 5627 5621 5615 5612
5607 5609 5614 5619 5624 5630 5637 5642 5644 5643 5644 5647 5647 5641 5637 5634 5633 5630 5625 5621 5614 5610
5588 5594 5597 5604 5611 5620 5627 5635 5638 5640 5642 5642 5643 5639 5635 5633 5630 5625 5621 5618 5612 5607
5580 5582 5586 5595 5604 5612 5620 5625 5632 5637 5639 5638 5639 5635 5634 5630 5627 5624 5618 5614 5610 5606
5580 5582 5582 5587 5590 5601 5612 5622 5628 5635 5636 5636 5635 5632 5631 5629 5627 5622 5617 5613 5606 5603
5563 5567 5571 5576 5583 5594 5604 5619 5626 5630 5633 5635 5632 5630 5629 5627 5624 5621 5616 5611 5606 5602
5552 5553 5563 5568 5574 5587 5597 5611 5620 5624 5629 5631 5629 5626 5624 5623 5619 5616 5613 5607 5603 5599
5533 5541 5548 5554 5567 5578 5588 5604 5614 5618 5622 5624 5622 5621 5619 5619 5615 5611 5607 5603 5599 5597
5519 5529 5537 5550 5563 5574 5582 5598 5606 5612 5615 5616 5616 5612 5612 5613 5609 5603 5602 5599 5595 5591
5511 5520 5531 5543 5553 5566 5574 5593 5602 5607 5609 5610 5610 5604 5602 5599 5600 5599 5597 5594 5590 5587
5500 5510 5521 5532 5543 5556 5566 5582 5598 5600 5601 5602 5602 5595 5592 5589 5592 5591 5589 5586 5586 5583
5488 5501 5511 5521 5532 5543 5558 5571 5594 5595 5594 5596 5590 5586 5581 5580 5581 5581 5578 5575 5576 5577
5474 5483 5495 5508 5523 5532 5546 5570 5576 5572 5578 5578 5577 5573 5571 5572 5567 5563 5558 5556 5556 5560
5460 5469 5482 5494 5506 5516 5529 5539 5548 5550 5548 5553 5560 5560 5559 5557 5558 5556 5547 5544 5541 5546